Content
SEND FEEDBACK

Daily
Averages
Monthly
Summary
United States of America

SPIRIT FALLS, WISCONSIN


Home > North America > United States > Wisconsin
Elevation: 1460 feet     Latitude: 45 27N     Longitude: 089 59W

WEATHER
 
SELECT A DAY
Number of Records: 256,652;   Date Range: 10/5/04 - 12/23/14
 
SHARE

PRINT THIS DATA

[ ← Previous Day ]
WEATHER ALMANAC - JANUARY 30, 2013
[ Next Day → ]
[ °C ]   °F
Weather ElementAverageHighLow
Temperature20.7 °F28.4 °F (12:35 am)10.4 °F (11:35 pm)
Dewpoint16.4 °F26.6 °F (12:35 am)5 °F (11:35 pm)
Humidity83.4 %93 % (12:35 am)74 % (4:15 am)
Barometer29.45 in29.57 in (12:35 am)29.37 in (1:15 pm)
Wind Speed10.9 mph15 mph (6:55 pm)
Wind Gust27.6 mph (2:55 pm)
Weather ElementAverage
Visibility4.9 mi
Wind DirectionNNW (322.5 °)

Weather ElementTotal
Precipitation0.07 in
Heating Degree Days45.6 (Base 65)
Averaged from 71 records on January 30, 2013
WEATHER CONDITIONS BREAKOUT
WIND DIRECTION BREAKOUT
WEATHER BY HOUR - JANUARY 30, 2013
[ °C ]   °F
Local TimeTemperatureDewpointHumidityBarometerVisibilityWind DirectionWind SpeedGust SpeedPrecipitationEventsConditions
12:35 AM28.4 °F26.6 °F93 %29.57 in10.0 miNNW (330°)12.7 mph18.4 mph0.02 inOvercast
12:55 AM28.4 °F26.6 °F93 %29.56 in10.0 miNW (320°)11.5 mph0.02 inOvercast
1:15 AM28.4 °F24.8 °F86 %29.53 in10.0 miNNW (330°)10.4 mph23.0 mphOvercast
1:35 AM28.4 °F24.8 °F86 %29.52 in10.0 miNNW (340°)9.2 mph19.6 mphOvercast
1:55 AM28.4 °F23.0 °F80 %29.51 in10.0 miNNW (340°)5.8 mphOvercast
2:15 AM28.4 °F23.0 °F80 %29.50 in10.0 miNorth (360°)11.5 mph18.4 mphOvercast
2:35 AM28.4 °F23.0 °F80 %29.49 in10.0 miNorth (350°)11.5 mph18.4 mphOvercast
2:55 AM28.4 °F23.0 °F80 %29.50 in10.0 miNNW (330°)10.4 mph17.3 mphOvercast
3:15 AM28.4 °F23.0 °F80 %29.49 in10.0 miNorth (350°)12.7 mph19.6 mphOvercast
3:35 AM26.6 °F23.0 °F86 %29.49 in10.0 miNorth (360°)13.8 mph18.4 mphOvercast
3:55 AM26.6 °F21.2 °F80 %29.50 in10.0 miNorth (350°)11.5 mph17.3 mphOvercast
4:15 AM26.6 °F19.4 °F74 %29.50 in10.0 miNorth (360°)13.8 mph21.9 mphOvercast
4:35 AM26.6 °F19.4 °F74 %29.50 in10.0 miNorth (360°)13.8 mph17.3 mphOvercast
4:55 AM26.6 °F19.4 °F74 %29.50 in10.0 miNorth (360°)11.5 mph16.1 mphOvercast
5:15 AM26.6 °F21.2 °F80 %29.50 in10.0 miNorth (360°)11.5 mph20.7 mph0.01 inOvercast
5:35 AM26.6 °F21.2 °F80 %29.49 in10.0 miNorth (10°)10.4 mph20.7 mph0.01 inOvercast
5:55 AM26.6 °F21.2 °F80 %29.48 in10.0 miNorth (360°)12.7 mph17.3 mph0.01 inOvercast
6:15 AM26.6 °F19.4 °F74 %29.47 in10.0 miNorth (10°)12.7 mph23.0 mphOvercast
6:35 AM26.6 °F21.2 °F80 %29.47 in5.0 miNNW (340°)12.7 mph19.6 mphSnowLight Snow
6:55 AM26.6 °F21.2 °F80 %29.47 in10.0 miNorth (360°)5.8 mph19.6 mphOvercast
7:15 AM24.8 °F21.2 °F86 %29.46 in10.0 miNorth (360°)12.7 mph19.6 mphOvercast
7:35 AM24.8 °F19.4 °F80 %29.46 in7.0 miNorth (350°)10.4 mph18.4 mphOvercast
7:55 AM24.8 °F19.4 °F80 %29.46 in7.0 miNorth (350°)12.7 mph19.6 mphOvercast
8:15 AM23.0 °F19.4 °F86 %29.44 in1.8 miNorth (360°)11.5 mph19.6 mphSnowLight Snow
8:35 AM23.0 °F19.4 °F86 %29.46 in1.2 miNorth (350°)9.2 mphSnowLight Snow
8:55 AM23.0 °F19.4 °F86 %29.43 in1.2 miNorth (350°)9.2 mphSnowLight Snow
9:15 AM23.0 °F19.4 °F86 %29.42 in1.5 miNNW (340°)12.7 mph17.3 mphSnowLight Snow
9:35 AM23.0 °F19.4 °F86 %29.43 in0.8 miNNW (340°)8.1 mph16.1 mphSnowLight Snow
9:55 AM21.2 °F19.4 °F93 %29.43 in0.5 miNNW (340°)8.1 mphSnowLight Snow
10:15 AM21.2 °F19.4 °F93 %29.42 in0.5 miNNW (340°)9.2 mph17.3 mphSnowSnow
10:35 AM21.2 °F19.4 °F93 %29.42 in0.2 miNNW (340°)12.7 mph17.3 mphSnowSnow
10:55 AM21.2 °F19.4 °F93 %29.41 in0.5 miNNW (340°)8.1 mphSnowSnow
11:15 AM23.0 °F19.4 °F86 %29.42 in1.2 miNW (320°)11.5 mphSnowLight Snow
11:35 AM23.0 °F19.4 °F86 %29.41 in1.8 miNNW (340°)9.2 mph17.3 mphSnowLight Snow
11:55 AM23.0 °F19.4 °F86 %29.40 in1.5 miNW (320°)10.4 mph17.3 mphSnowLight Snow
12:15 PM23.0 °F19.4 °F86 %29.39 in0.8 miNNW (330°)11.5 mphSnowLight Snow
12:35 PM21.2 °F19.4 °F93 %29.39 in1.0 miNNW (330°)8.1 mphSnowLight Snow
12:55 PM23.0 °F19.4 °F86 %29.38 in1.0 miNNW (330°)6.9 mph16.1 mphSnowLight Snow
1:15 PM23.0 °F19.4 °F86 %29.37 in0.8 miNW (320°)12.7 mph18.4 mphSnowLight Snow
1:35 PM21.2 °F17.6 °F86 %29.37 in1.0 miNNW (330°)12.7 mph18.4 mphSnowLight Snow
1:55 PM21.2 °F17.6 °F86 %29.37 in0.5 miNorth (350°)11.5 mph23.0 mphSnowLight Snow
2:15 PM21.2 °F15.8 °F80 %29.38 in0.8 miNorth (360°)10.4 mph16.1 mphSnowLight Snow
2:35 PM19.4 °F14.0 °F80 %29.38 in1.5 miNNW (340°)12.7 mph21.9 mphSnowLight Snow
2:55 PM19.4 °F14.0 °F80 %29.38 in1.2 miNNW (340°)9.2 mph27.6 mphSnowLight Snow
3:15 PM19.4 °F14.0 °F80 %29.39 in1.2 miNNW (330°)12.7 mph18.4 mphSnowLight Snow
3:35 PM19.4 °F14.0 °F80 %29.39 in0.8 miNNW (340°)10.4 mph16.1 mphSnowLight Snow
3:55 PM17.6 °F12.2 °F79 %29.41 in1.0 miNNW (330°)11.5 mph18.4 mphSnowLight Snow
4:15 PM17.6 °F12.2 °F79 %29.41 in2.0 miNNW (330°)13.8 mph21.9 mphSnowLight Snow
4:35 PM17.6 °F12.2 °F79 %29.41 in1.8 miNNW (330°)10.4 mph20.7 mphSnowLight Snow
4:55 PM15.8 °F12.2 °F86 %29.42 in1.2 miNW (320°)9.2 mphSnowLight Snow
5:15 PM15.8 °F12.2 °F86 %29.42 in2.0 miNNW (340°)10.4 mph17.3 mphSnowLight Snow
5:35 PM15.8 °F10.4 °F79 %29.43 in4.0 miNW (320°)8.1 mph16.1 mphSnowLight Snow
5:55 PM15.8 °F12.2 °F86 %29.43 in3.0 miNW (320°)8.1 mphSnowLight Snow
6:15 PM15.8 °F10.4 °F79 %29.43 in4.0 miNW (320°)6.9 mphSnowLight Snow
6:35 PM14.0 °F12.2 °F93 %29.43 in2.5 miNW (320°)9.2 mphSnowLight Snow
6:55 PM14.0 °F10.4 °F86 %29.44 in3.0 miNNW (330°)15.0 mph20.7 mphSnowLight Snow
7:15 PM14.0 °F12.2 °F93 %29.44 in1.0 miNW (320°)8.1 mphSnowSnow
7:35 PM14.0 °F10.4 °F86 %29.44 in3.0 miNW (320°)12.7 mph16.1 mphSnowLight Snow
7:55 PM14.0 °F10.4 °F86 %29.44 in5.0 miNW (310°)10.4 mph16.1 mphSnowLight Snow
8:15 PM14.0 °F8.6 °F79 %29.44 in4.0 miWNW (300°)10.4 mph27.6 mphSnowLight Snow
8:35 PM14.0 °F8.6 °F79 %29.44 in4.0 miWNW (300°)10.4 mph17.3 mphSnowLight Snow
8:55 PM12.2 °F8.6 °F85 %29.45 in4.0 miWNW (300°)11.5 mph19.6 mphSnowLight Snow
9:15 PM12.2 °F8.6 °F85 %29.46 in5.0 miWNW (300°)11.5 mph18.4 mphSnowLight Snow
9:35 PM12.2 °F8.6 °F85 %29.46 in5.0 miWNW (300°)11.5 mphSnowLight Snow
9:55 PM12.2 °F8.6 °F85 %29.46 in7.0 miNW (310°)12.7 mph19.6 mphSnowLight Snow
10:15 PM12.2 °F6.8 °F79 %29.46 in7.0 miWNW (300°)11.5 mph17.3 mphSnowLight Snow
10:35 PM12.2 °F6.8 °F79 %29.47 in5.0 miWNW (300°)11.5 mph18.4 mphSnowLight Snow
10:55 PM12.2 °F6.8 °F79 %29.48 in7.0 miWNW (290°)10.4 mph17.3 mphSnowLight Snow
11:15 PM12.2 °F6.8 °F79 %29.48 in7.0 miWNW (300°)13.8 mph18.4 mphSnowLight Snow
11:35 PM10.4 °F5.0 °F79 %29.48 in10.0 miWNW (290°)12.7 mph19.6 mphSnowLight Snow
11:55 PM10.4 °F5.0 °F79 %29.49 in10.0 miWest (280°)15.0 mphOvercast
Hourly data recorded from KTKV, located miles away from Spirit Falls, Wisconsin







STORIES FROM OUR PARTNERS